TimeMDT,TemperatureF,Dew PointF,Humidity,Sea Level PressureIn,VisibilityMPH,Wind Direction,Wind SpeedMPH,Gust SpeedMPH,PrecipitationIn,Events,Conditions,WindDirDegrees,DateUTC
12:53 AM,36.0,9.0,33,30.03,10.0,ENE,3.5,-,N/A,,Clear,70,2013-04-25 06:53:00
1:53 AM,36.0,10.9,36,30.01,10.0,ENE,4.6,-,N/A,,Partly Cloudy,60,2013-04-25 07:53:00
2:53 AM,37.9,12.9,36,29.98,10.0,NE,3.5,-,N/A,,Mostly Cloudy,40,2013-04-25 08:53:00
3:53 AM,35.1,14.0,42,29.96,10.0,Calm,Calm,-,N/A,,Clear,0,2013-04-25 09:53:00
4:53 AM,30.0,12.0,47,29.98,10.0,Calm,Calm,-,N/A,,Clear,0,2013-04-25 10:53:00
5:53 AM,27.0,10.9,51,29.99,10.0,Calm,Calm,-,N/A,,Clear,0,2013-04-25 11:53:00
6:53 AM,28.9,10.9,47,30.00,10.0,North,-9999.0,-,N/A,,Clear,0,2013-04-25 12:53:00
7:53 AM,39.9,12.9,33,29.99,10.0,Calm,Calm,-,N/A,,Clear,0,2013-04-25 13:53:00
8:53 AM,52.0,14.0,22,29.96,10.0,East,4.6,-,N/A,,Clear,90,2013-04-25 14:53:00
9:53 AM,61.0,10.9,14,29.93,10.0,SW,6.9,-,N/A,,Clear,220,2013-04-25 15:53:00
10:53 AM,66.0,10.9,12,29.91,10.0,SSW,10.4,17.3,N/A,,Clear,200,2013-04-25 16:53:00
11:53 AM,69.1,15.1,13,29.92,10.0,SSW,15.0,23.0,N/A,,Clear,210,2013-04-25 17:53:00
12:53 PM,70.0,14.0,12,29.88,10.0,South,12.7,19.6,N/A,,Clear,180,2013-04-25 18:53:00
1:18 PM,69.8,15.8,13,30.00,10.0,WSW,10.4,18.4,N/A,,Clear,250,2013-04-25 19:18:00
1:53 PM,70.0,15.1,12,29.85,10.0,South,13.8,20.7,N/A,,Clear,190,2013-04-25 19:53:00
2:53 PM,69.1,14.0,12,29.82,10.0,South,9.2,19.6,N/A,,Clear,180,2013-04-25 20:53:00
3:53 PM,69.1,17.1,14,29.82,3.0,SSW,17.3,38.0,N/A,,Haze,200,2013-04-25 21:53:00
4:53 PM,66.0,14.0,13,29.84,10.0,West,12.7,-,N/A,,Mostly Cloudy,270,2013-04-25 22:53:00
5:23 PM,64.4,17.6,16,29.97,10.0,South,15.0,-,N/A,,Overcast,190,2013-04-25 23:23:00
5:53 PM,62.1,21.9,21,29.90,10.0,SSW,25.3,33.4,N/A,,Mostly Cloudy,210,2013-04-25 23:53:00
6:53 PM,61.0,21.9,22,29.90,10.0,SW,12.7,-,N/A,,Overcast,220,2013-04-26 00:53:00
7:53 PM,57.9,21.9,25,29.87,10.0,SSW,8.1,-,N/A,,Mostly Cloudy,200,2013-04-26 01:53:00
8:53 PM,57.9,21.0,24,29.85,10.0,SSW,5.8,-,N/A,,Overcast,200,2013-04-26 02:53:00
9:53 PM,55.9,21.0,26,29.86,10.0,SE,4.6,-,N/A,,Clear,140,2013-04-26 03:53:00
10:53 PM,52.0,21.9,31,29.89,10.0,East,5.8,-,N/A,,Overcast,80,2013-04-26 04:53:00
11:53 PM,53.1,21.9,30,29.88,10.0,WSW,5.8,-,N/A,,Mostly Cloudy,240,2013-04-26 05:53:00